STARLINK-1346 (45560 NORAD) Tracking and Keplerian Element Data

This shows tracking and keplerian element data for the satellite.

Feedback or suggestion? Click here.




ElementValue
Catalog45560
NameSTARLINK-1346
Epoch Orbit624
Epoch Day149.08334491
Epoch Year2020
RAAN225.3959
Inclination52.9991
Eccentricity0.0007709
Argument of Perigee281.6639
Mean Anonmoly156.6747
Mean Motion15.62694957
Decay Rate0.00053669
L11 45560U 20025AF 20149.08334491 .00053669 00000-0 58868-3 0 9994
L22 45560 52.9991 225.3959 0007709 281.6639 156.6747 15.62694957 6242

Live tracking and technical data element details for STARLINK-1346 (NORAD 45560). STARLINK-1346 can be tracked NOW for your location showing map with azimuth and elevation plus other details from your city location.

Track the satellite on the map from your city or location and see movement details for azimuth, elevation, latitude, longitude, range, height, and movement on the map or in text.







IsCatalogInMostPopularTable: catalog: 45560, numindb: 8
Update: records affected: 1



GetName: 45560 STARLINK-1346

Hit Count: updated at: Sat, 30 May 2020 14:54:01 GMT